TimePST,TemperatureF,Dew PointF,Humidity,Sea Level PressureIn,VisibilityMPH,Wind Direction,Wind SpeedMPH,Gust SpeedMPH,PrecipitationIn,Events,Conditions,WindDirDegrees,DateUTC
12:03 AM,32.0,32.0,100,30.21,1.0,SE,1.2,-,N/A,,Mist,140,2012-11-26 08:03:00
12:08 AM,32.0,32.0,100,30.21,0.5,SE,2.3,-,N/A,Fog,Light Freezing Fog,140,2012-11-26 08:08:00
12:13 AM,32.0,32.0,100,30.21,0.5,SE,2.3,-,N/A,Fog,Fog,140,2012-11-26 08:13:00
12:18 AM,32.0,32.0,100,30.21,0.5,SE,2.3,-,N/A,Fog,Light Freezing Fog,140,2012-11-26 08:18:00
12:23 AM,30.2,30.2,100,30.20,0.5,Calm,Calm,-,N/A,Fog,Light Freezing Fog,0,2012-11-26 08:23:00
12:28 AM,30.2,30.2,100,30.20,0.5,SSE,1.2,-,N/A,Fog,Light Freezing Fog,150,2012-11-26 08:28:00
12:43 AM,32.0,32.0,100,30.20,0.5,South,4.6,-,N/A,Fog,Light Freezing Fog,180,2012-11-26 08:43:00
12:48 AM,32.0,32.0,100,30.21,0.8,South,2.3,-,N/A,,Overcast,190,2012-11-26 08:48:00
12:58 AM,30.6,30.4,99,30.23,0.8,Calm,Calm,-,N/A,,Mostly Cloudy,70,2012-11-26 08:58:00
1:03 AM,32.0,32.0,100,30.21,0.8,Calm,Calm,-,N/A,,Mostly Cloudy,40,2012-11-26 09:03:00
1:08 AM,32.0,32.0,100,30.21,1.0,NE,2.3,-,N/A,,Mist,40,2012-11-26 09:08:00
1:13 AM,32.0,32.0,100,30.21,1.5,Calm,Calm,-,N/A,,Scattered Clouds,30,2012-11-26 09:13:00
1:23 AM,32.0,32.0,100,30.20,0.5,SSE,2.3,-,N/A,Fog,Light Freezing Fog,160,2012-11-26 09:23:00
1:28 AM,32.0,32.0,100,30.20,0.2,Calm,Calm,-,N/A,Fog,Light Freezing Fog,0,2012-11-26 09:28:00
1:33 AM,32.0,32.0,100,30.20,0.2,Calm,Calm,-,N/A,Fog,Light Freezing Fog,0,2012-11-26 09:33:00
1:38 AM,32.0,30.2,93,30.20,0.2,Calm,Calm,-,N/A,Fog,Light Freezing Fog,0,2012-11-26 09:38:00
1:43 AM,30.2,30.2,100,30.19,0.5,SSE,2.3,-,N/A,Fog,Light Freezing Fog,150,2012-11-26 09:43:00
1:48 AM,30.2,30.2,100,30.19,0.5,Calm,Calm,-,N/A,Fog,Light Freezing Fog,0,2012-11-26 09:48:00
1:53 AM,30.2,28.4,93,30.19,0.5,Calm,Calm,-,N/A,Fog,Light Freezing Fog,60,2012-11-26 09:53:00
1:58 AM,29.7,29.3,99,30.21,0.5,Variable,1.2,-,N/A,Fog,Light Freezing Fog,0,2012-11-26 09:58:00
2:03 AM,30.2,30.2,100,30.19,0.8,East,3.5,-,N/A,,Clear,100,2012-11-26 10:03:00
2:08 AM,30.2,28.4,93,30.18,1.5,East,2.3,-,N/A,,Clear,100,2012-11-26 10:08:00
2:13 AM,28.4,28.4,100,30.18,3.0,East,2.3,-,N/A,,Clear,100,2012-11-26 10:13:00
2:54 AM,28.4,28.4,100,30.16,5.0,East,2.3,-,N/A,,Partly Cloudy,100,2012-11-26 10:54:00
2:58 AM,29.3,29.1,99,30.17,5.0,Variable,2.3,-,N/A,,Partly Cloudy,0,2012-11-26 10:58:00
3:08 AM,28.4,28.4,100,30.14,5.0,Variable,3.5,-,N/A,,Mostly Cloudy,0,2012-11-26 11:08:00
3:58 AM,30.2,30.0,99,30.17,5.0,East,1.2,-,N/A,,Mostly Cloudy,80,2012-11-26 11:58:00
4:13 AM,32.0,32.0,100,30.15,1.5,NE,2.3,-,N/A,,Mostly Cloudy,40,2012-11-26 12:13:00
4:14 AM,32.0,32.0,100,30.14,1.5,NE,2.3,-,N/A,,Light Freezing Drizzle,50,2012-11-26 12:14:00
4:19 AM,32.0,30.2,93,30.14,1.0,ENE,1.2,-,N/A,,Light Freezing Drizzle,60,2012-11-26 12:19:00
4:24 AM,32.0,32.0,100,30.14,0.8,Calm,Calm,-,N/A,,Light Freezing Drizzle,0,2012-11-26 12:24:00
4:25 AM,32.0,32.0,100,30.14,0.8,Calm,Calm,-,N/A,,Mist,0,2012-11-26 12:25:00
4:29 AM,32.0,32.0,100,30.14,0.5,Calm,Calm,-,N/A,Fog,Light Freezing Drizzle,0,2012-11-26 12:29:00
4:34 AM,32.0,32.0,100,30.14,0.5,South,1.2,-,N/A,Fog,Light Freezing Drizzle,190,2012-11-26 12:34:00
4:39 AM,32.0,32.0,100,30.14,0.5,SSW,2.3,-,N/A,Fog,Light Freezing Drizzle,210,2012-11-26 12:39:00
4:43 AM,32.0,32.0,100,30.14,0.5,South,2.3,-,N/A,Fog,Light Freezing Fog,190,2012-11-26 12:43:00
4:58 AM,30.7,30.6,99,30.17,0.2,Calm,Calm,-,0.00,Fog,Light Freezing Fog,0,2012-11-26 12:58:00
5:03 AM,32.0,32.0,100,30.15,0.2,SSW,1.2,-,N/A,Fog,Light Freezing Fog,200,2012-11-26 13:03:00
5:13 AM,32.0,32.0,100,30.15,0.2,SSW,2.3,-,N/A,Fog,Light Freezing Fog,210,2012-11-26 13:13:00
5:28 AM,32.0,32.0,100,30.15,0.2,South,2.3,-,N/A,Fog,Light Freezing Fog,190,2012-11-26 13:28:00
5:43 AM,32.0,30.2,93,30.15,0.2,SE,1.2,-,N/A,Fog,Light Freezing Fog,140,2012-11-26 13:43:00
5:53 AM,30.2,30.2,100,30.15,0.2,Calm,Calm,-,N/A,Fog,Light Freezing Fog,30,2012-11-26 13:53:00
5:58 AM,30.0,29.7,99,30.17,0.2,SSE,1.2,-,N/A,Fog,Light Freezing Fog,160,2012-11-26 13:58:00
6:08 AM,32.0,30.2,93,30.15,0.2,Calm,Calm,-,N/A,Fog,Light Freezing Fog,0,2012-11-26 14:08:00
6:18 AM,30.2,30.2,100,30.15,0.2,SSW,2.3,-,N/A,Fog,Light Freezing Fog,200,2012-11-26 14:18:00
6:23 AM,30.2,30.2,100,30.14,0.2,South,2.3,-,N/A,Fog,Light Freezing Fog,190,2012-11-26 14:23:00
6:38 AM,28.4,28.4,100,30.14,0.2,South,2.3,-,N/A,Fog,Light Freezing Fog,170,2012-11-26 14:38:00
6:43 AM,28.4,28.4,100,30.14,0.5,SE,2.3,-,N/A,Fog,Light Freezing Fog,140,2012-11-26 14:43:00
6:52 AM,28.4,28.4,100,30.14,0.5,Calm,Calm,-,N/A,Fog,Light Freezing Fog,0,2012-11-26 14:52:00
6:58 AM,28.9,28.8,99,30.16,0.5,Calm,Calm,-,N/A,Fog,Light Freezing Fog,70,2012-11-26 14:58:00
7:18 AM,30.2,30.2,100,30.14,0.2,Calm,Calm,-,N/A,Fog,Light Freezing Fog,0,2012-11-26 15:18:00
7:20 AM,32.0,30.2,93,30.14,0.2,Calm,Calm,-,N/A,Fog,Light Freezing Fog,0,2012-11-26 15:20:00
7:24 AM,32.0,32.0,100,30.14,0.2,Calm,Calm,-,N/A,Fog,Light Freezing Fog,20,2012-11-26 15:24:00
7:27 AM,32.0,32.0,100,30.14,0.2,Calm,Calm,-,N/A,Fog,Light Freezing Fog,0,2012-11-26 15:27:00
7:31 AM,32.0,32.0,100,30.14,0.2,West,1.2,-,N/A,Fog,Light Freezing Drizzle,260,2012-11-26 15:31:00
7:49 AM,32.0,32.0,100,30.13,0.2,Calm,Calm,-,N/A,Fog,Light Freezing Fog,0,2012-11-26 15:49:00
7:51 AM,32.0,32.0,100,30.13,0.2,Calm,Calm,-,N/A,Fog,Light Freezing Fog,30,2012-11-26 15:51:00
8:07 AM,32.0,32.0,100,30.12,0.2,Calm,Calm,-,N/A,Fog,Light Freezing Fog,0,2012-11-26 16:07:00
8:27 AM,32.0,32.0,100,30.12,0.2,Calm,Calm,-,N/A,Fog,Light Freezing Fog,0,2012-11-26 16:27:00
8:32 AM,32.0,32.0,100,30.12,0.2,Calm,Calm,-,N/A,Fog,Light Freezing Fog,0,2012-11-26 16:32:00
8:37 AM,32.0,32.0,100,30.12,0.2,South,2.3,-,N/A,Fog,Light Freezing Fog,170,2012-11-26 16:37:00
8:47 AM,32.0,32.0,100,30.12,0.5,SSE,2.3,-,N/A,Fog,Light Freezing Fog,150,2012-11-26 16:47:00
8:49 AM,32.0,32.0,100,30.12,0.5,South,2.3,-,N/A,Fog,Light Freezing Fog,170,2012-11-26 16:49:00
8:53 AM,32.0,32.0,100,30.12,0.5,Variable,2.3,-,N/A,Fog,Light Freezing Drizzle,0,2012-11-26 16:53:00
8:58 AM,31.1,30.9,99,30.14,0.5,Calm,Calm,-,N/A,Fog,Light Freezing Fog,30,2012-11-26 16:58:00
8:59 AM,32.0,32.0,100,30.11,0.5,Calm,Calm,-,N/A,Fog,Light Freezing Drizzle,30,2012-11-26 16:59:00
9:04 AM,32.0,32.0,100,30.12,1.0,East,1.2,-,N/A,,Mist,80,2012-11-26 17:04:00
9:07 AM,32.0,32.0,100,30.12,1.0,Calm,Calm,-,N/A,,Mist,0,2012-11-26 17:07:00
9:10 AM,32.0,32.0,100,30.11,1.2,SE,1.2,-,N/A,,Light Freezing Drizzle,140,2012-11-26 17:10:00
9:15 AM,32.0,32.0,100,30.12,2.0,Calm,Calm,-,N/A,,Light Freezing Drizzle,30,2012-11-26 17:15:00
9:21 AM,32.0,32.0,100,30.12,3.0,Calm,Calm,-,N/A,,Scattered Clouds,0,2012-11-26 17:21:00
9:22 AM,32.0,32.0,100,30.12,4.0,Calm,Calm,-,N/A,,Scattered Clouds,20,2012-11-26 17:22:00
9:26 AM,32.0,32.0,100,30.12,3.0,ENE,1.2,-,N/A,,Scattered Clouds,70,2012-11-26 17:26:00
9:29 AM,32.0,32.0,100,30.12,3.0,East,1.2,-,N/A,,Scattered Clouds,100,2012-11-26 17:29:00
9:34 AM,32.0,32.0,100,30.11,2.5,Calm,Calm,-,N/A,,Mostly Cloudy,20,2012-11-26 17:34:00
9:39 AM,32.0,32.0,100,30.11,2.5,Calm,Calm,-,N/A,,Mostly Cloudy,0,2012-11-26 17:39:00
9:52 AM,32.0,32.0,100,30.11,3.0,Calm,Calm,-,N/A,,Overcast,0,2012-11-26 17:52:00
9:56 AM,32.0,32.0,100,30.11,5.0,SE,1.2,-,N/A,,Overcast,130,2012-11-26 17:56:00
9:57 AM,32.0,32.0,100,30.11,6.0,ESE,1.2,-,N/A,,Overcast,120,2012-11-26 17:57:00
9:58 AM,32.7,32.5,99,30.13,6.0,ESE,1.2,-,N/A,,Overcast,120,2012-11-26 17:58:00
10:01 AM,32.0,32.0,100,30.12,7.0,ESE,1.2,-,N/A,,Overcast,120,2012-11-26 18:01:00
10:02 AM,32.0,32.0,100,30.12,8.0,ESE,1.2,-,N/A,,Overcast,120,2012-11-26 18:02:00
10:06 AM,32.0,32.0,100,30.12,10.0,Calm,Calm,-,N/A,,Overcast,0,2012-11-26 18:06:00
10:15 AM,32.0,32.0,100,30.12,10.0,SW,1.2,-,N/A,,Overcast,220,2012-11-26 18:15:00
10:58 AM,34.9,34.5,99,30.14,10.0,NNE,2.3,-,0.00,,Mostly Cloudy,30,2012-11-26 18:58:00
11:08 AM,35.6,35.6,100,30.11,10.0,NE,1.2,-,N/A,,Scattered Clouds,50,2012-11-26 19:08:00
11:58 AM,40.6,40.5,99,30.11,10.0,Variable,1.2,-,N/A,,Clear,0,2012-11-26 19:58:00
12:58 PM,45.1,45.0,99,30.08,10.0,Variable,1.2,-,N/A,,Clear,0,2012-11-26 20:58:00
1:58 PM,49.6,37.2,62,30.08,10.0,NE,3.5,-,N/A,,Clear,40,2012-11-26 21:58:00
2:58 PM,47.3,36.0,65,30.07,10.0,ENE,3.5,-,N/A,,Clear,60,2012-11-26 22:58:00
3:58 PM,43.9,35.1,71,30.07,10.0,NE,2.3,-,N/A,,Clear,40,2012-11-26 23:58:00
4:58 PM,39.0,36.1,89,30.06,10.0,South,2.3,-,N/A,,Clear,180,2012-11-27 00:58:00
5:58 PM,34.0,33.6,99,30.06,10.0,SSW,2.3,-,N/A,,Clear,200,2012-11-27 01:58:00
6:58 PM,34.7,34.3,99,30.06,10.0,South,4.6,-,N/A,,Clear,190,2012-11-27 02:58:00
7:58 PM,32.9,32.7,99,30.07,10.0,SSE,2.3,-,N/A,,Clear,150,2012-11-27 03:58:00
8:58 PM,31.1,30.9,99,30.07,10.0,South,3.5,-,N/A,,Clear,180,2012-11-27 04:58:00
9:58 PM,30.6,30.2,99,30.08,10.0,Calm,Calm,-,N/A,,Clear,0,2012-11-27 05:58:00
10:58 PM,29.7,29.5,99,30.09,10.0,SE,2.3,-,N/A,,Overcast,140,2012-11-27 06:58:00
11:58 PM,30.6,30.4,99,30.10,10.0,SSW,2.3,-,N/A,,Overcast,200,2012-11-27 07:58:00